Date,TemperatureHighF,TemperatureAvgF,TemperatureLowF,DewpointHighF,DewpointAvgF,DewpointLowF,HumidityHigh,HumidityAvg,HumidityLow,PressureMaxIn,PressureMinIn,WindSpeedMaxMPH,WindSpeedAvgMPH,GustSpeedMaxMPH,PrecipitationSumIn
2013-10-1,51,50,45,50,48,45,100,95,93,30.05,29.97,9,4,9,0.41
2013-10-2,47,45,42,47,45,42,100,100,98,30.14,30.02,1,0,7,0.07
2013-10-3,50,45,43,49,45,43,100,99,96,30.40,30.16,0,0,3,0.29
2013-10-4,52,46,37,51,46,37,100,98,95,30.43,30.32,8,3,8,0.02
2013-10-5,60,50,47,55,46,-100,100,93,85,30.31,30.12,8,1,8,0.00
2013-10-6,69,52,41,56,47,41,100,88,39,30.11,29.79,13,2,16,0.00
2013-10-7,56,48,48,51,42,-100,100,91,83,29.95,29.80,11,2,12,0.10
2013-10-8,53,48,44,50,46,41,100,92,74,30.08,29.94,12,4,13,0.14
2013-10-9,53,46,35,49,42,-100,100,93,84,30.12,29.93,7,2,10,0.08
2013-10-10,47,46,45,47,46,45,100,100,100,29.94,29.91,0,0,0,0.00
2013-10-11,50,44,39,49,44,39,100,99,95,30.11,30.07,4,0,5,0.07
2013-10-12,50,44,42,49,40,-100,100,96,97,30.19,30.06,7,2,11,0.26
2013-10-13,54,48,41,50,45,40,98,89,71,30.33,30.19,8,3,8,0.35
2013-10-14,54,45,37,51,44,37,100,95,82,30.40,30.33,7,2,8,0.00
2013-10-15,57,47,38,52,46,38,100,95,82,30.37,30.14,6,1,7,0.00
2013-10-16,54,45,39,51,45,39,100,98,86,30.18,30.13,6,1,6,0.00
2013-10-17,56,45,37,52,44,37,100,95,75,30.25,30.17,7,1,7,0.00
2013-10-18,55,46,37,52,44,37,100,96,86,30.23,30.12,6,1,6,0.00
2013-10-19,51,41,36,51,39,-100,100,98,98,30.16,30.12,6,0,6,0.00
2013-10-20,48,43,38,48,43,38,100,100,100,30.18,30.11,1,0,0,0.00
2013-10-21,56,46,37,53,46,37,100,99,91,30.15,30.07,5,0,6,0.00
2013-10-22,57,46,39,53,45,39,100,97,84,30.11,30.00,6,1,8,0.01
2013-10-23,57,46,38,54,45,38,100,97,86,30.03,29.95,6,1,6,0.00
2013-10-24,55,43,37,53,43,37,100,99,92,30.03,29.99,4,0,7,0.00
2013-10-25,52,49,45,51,48,45,100,99,95,30.28,30.16,2,0,6,0.00
2013-10-26,49,46,44,48,44,-100,100,98,96,30.30,30.17,2,0,0,0.01
2013-10-27,52,48,44,50,47,44,100,94,75,30.16,29.91,9,3,11,0.01
2013-10-28,50,41,42,36,27,-100,77,74,59,30.00,29.93,10,6,12,0.23
2013-10-29,51,42,35,43,38,32,100,83,70,29.98,29.93,8,2,10,0.00
2013-10-30,51,44,34,47,43,34,100,95,80,30.06,30.01,4,0,5,0.01